BSAT-4A (42951 NORAD) Tracking and Keplerian Element Data

This shows tracking and keplerian element data for the satellite.

Feedback or suggestion? Click here.




ElementValue
Catalog42951
NameBSAT-4A
Epoch Orbit2436
Epoch Day158.03174451
Epoch Year2024
RAAN72.6416
Inclination0.092
Eccentricity0.000404
Argument of Perigee346.8213
Mean Anonmoly316.7444
Mean Motion1.00271565
Decay Rate-3.48E-06
L11 42951U 17059B 24158.03174451 -.00000348 00000+0 00000+0 0 9992
L22 42951 0.0920 72.6416 0004040 346.8213 316.7444 1.00271565 24366



Live tracking and technical data element details for BSAT-4A (NORAD 42951). BSAT-4A can be tracked NOW for your location showing map with azimuth and elevation plus other details from your city location.







IsCatalogInMostPopularTable: catalog: 42951, numindb: 593
Update: records affected: 1



GetName: 42951 BSAT-4A

Hit Count: updated at: Fri, 14 Jun 2024 18:43:33 GMT